Regional Weather Roundup
Issued by NWS

Current Version | Previous Version | Text Only | Print | Product List | Glossary On
Versions: 1 2 3 4 5 6 7 8 9 10 11 12 13 14 15 16 17 18 19 20 21 22 23 24 25 26 27
000
ASUS42 KTBW 201916
RWRFL
FLORIDA REGIONAL WEATHER ROUNDUP
NATIONAL WEATHER SERVICE TAMPA BAY RUSKIN FL
200 PM EST MON NOV 20 2017

NOTE: "FAIR" INDICATES FEW OR NO CLOUDS BELOW 12,000 FEET WITH NO
SIGNIFICANT WEATHER AND/OR OBSTRUCTIONS TO VISIBILITY.

FLZ001>010-012>015-112-114-115-202000-
PANHANDLE FLORIDA

CITY           SKY/WX    TMP DP  RH WIND       PRES   REMARKS
PENSACOLA      CLOUDY    54  39  57 E5        30.17F
PENSACOLA NAS  PTSUNNY   56  44  64 VRB6      30.16F
MILTON NAS     PTSUNNY   59  33  37 S5        30.16F
CRESTVIEW      MOSUNNY   58  33  39 CALM      30.18F
DUKE FIELD     PTSUNNY   59  32  37 CALM      30.16F
VALPARAISO     PTSUNNY   56  33  41 CALM      30.17F
MARY ESTHER    PTSUNNY   55  39  55 SE7       30.16F
PANAMA CITY    FAIR      62  33  33 MISG      30.15F
TYNDALL AFB    MOSUNNY   60  35  39 SE7       30.16F
APALACHICOLA   SUNNY     62  44  51 E10       30.15F

STATION/POSITION SKY/WX   TEMP    WIND        PRES    WAVE   SWELL
                          AIR SEA DIR/SP/G            HT/PER HT/PER
                          (F)     (DEG/KT/KT) (MB)    (FT/S) (FT/S)
29.2N   88.2W              64 79   80/  6/ 10 1020.6F   3/ 6   3/ 6
28.8N   86.0W              63 77   70/ 10/ 14 1020.1F   4/ 5   3/ 5
PANAMA CITY BEAC           58 71  160/  5/  6 1021.8F
TOWER C                    60      90/ 11/ 13 1021.0F
28.5N   84.5W              65 75   90/ 10/ 14 1019.3F   5/ 6   3/ 6

$$
FLZ011-016>038-118-127-128-134-139-239-202000-
NORTH FLORIDA

CITY           SKY/WX    TMP DP  RH WIND       PRES   REMARKS
MARIANNA       SUNNY     63  34  33 VRB3      30.15F
TALLAHASSEE    PTSUNNY   65  35  33 S7        30.15F
PERRY          SUNNY     68  45  42 NE6       30.14F
LIVE OAK       SUNNY     70  50  49 E10       30.15F
CROSS CITY     SUNNY     71  51  48 NE8       30.16F
LAKE CITY      FAIR      68  52  56 E6        30.14F
GAINESVILLE    MOSUNNY   73  53  49 E8G18     30.14F
WILLISTON      MOSUNNY   77  55  47 NE10      30.11S
PALATKA        PTSUNNY   72  54  53 E12       30.12F
MAYPORT NAS    PTSUNNY   70  58  65 NE18      30.14F
JACKSONVILLE   PTSUNNY   72  55  55 NE16      30.15F
JAX NAS        PTSUNNY   71  57  61 NE13      30.14F
JAX CECIL      PTSUNNY   70  57  64 E10G17    30.14F
ST AUGUSTINE   MOSUNNY   72  58  61 E15       30.14F
PALM COAST     MOSUNNY   73  54  49 E14G21    30.12F

STATION/POSITION SKY/WX   TEMP    WIND        PRES    WAVE   SWELL
                          AIR SEA DIR/SP/G            HT/PER HT/PER
                          (F)     (DEG/KT/KT) (MB)    (FT/S) (FT/S)
SHELL POINT      NOT AVBL
KEATON BEACH               67      40/  7/  8 1019.8F
CEDAR KEY                  67      80/  8/  9 1019.7F
FERNANDINA                 67 65   30/  8/ 13 1022.0F
30.7N   81.3W                 68                N/A     4/ 5
MAYPORT                    67 67   50/ 15/ 18 1021.2F
31.4N   80.9W              63 68   70/ 14/ 17 1022.0F   3/ 6   2/ 9
ST AUGUSTINE               70 67   80/ 12/ 13 1020.7F

$$
FLZ040-043>046-052-053-057-058-063-144-202000-
INTERIOR CENTRAL FLORIDA

CITY           SKY/WX    TMP DP  RH WIND       PRES   REMARKS
OCALA          MOSUNNY   75  56  51 NE6G17    30.11F
THE VILLAGES     N/A     77  55  47 MISG      29.99F HAZE
LEESBURG       SUNNY     77  55  46 E12       30.10F
SANFORD        PTSUNNY   75  54  47 E12G22    30.10F
ORLANDO EXEC   PTSUNNY   75  57  53 E17       30.09F
ORLANDO INTL   PTSUNNY   75  55  49 E15G24    30.09F
KISSIMMEE      PTSUNNY   76  57  51 E12G23    30.09F
WINTER HAVEN   SUNNY     78  54  43 E13       30.08F
LAKELAND       MOSUNNY   79  54  41 E8G18     30.07F
BARTOW         MOSUNNY   77  55  47 E13       30.08S
SEBRING        FAIR      81  57  43 E14       30.05F
OKEECHOBEE     MOSUNNY   77  59  53 NE12G17   30.05F

$$
FLZ041-047-054-059-064-141-147-202000-
EAST CENTRAL FLORIDA

CITY           SKY/WX    TMP DP  RH WIND       PRES   REMARKS
ORMOND BEACH   MOSUNNY   73  55  53 E15       30.12F
DAYTONA BEACH  MOSUNNY   74  57  55 E13G20    30.12F
DELAND         CLOUDY    75  55  50 NE14      30.11F
NEW SMYRNA BEA PTSUNNY   73  55  53 E12       30.13F
JFK SPACE CTR  MOSUNNY   75  59  58 E12       30.09F
TITUSVILLE     PTSUNNY   77  55  47 E12       30.11F
CAPE CANAVERAL MOSUNNY   76  57  51 E10       30.08F
PATRICK AFB    MOSUNNY   76  59  55 E14       30.08F
MELBOURNE      MOSUNNY   78  58  49 E14       30.08F
VERO BEACH     SUNNY     77  57  50 E10       30.08F
FT PIERCE      SUNNY     76  59  55 E12       30.06F
STUART         MOSUNNY   81  63  54 E13G20    30.07F

STATION/POSITION SKY/WX   TEMP    WIND        PRES    WAVE   SWELL
                          AIR SEA DIR/SP/G            HT/PER HT/PER
                          (F)     (DEG/KT/KT) (MB)    (FT/S) (FT/S)
28.5N   80.2W              73 78   80/ 14/ 17 1019.0F   5/ 7   2/ 8
TRIDENT PIER     NOT AVBL
27.5N   80.2W                 75                N/A     4/ 7

$$
FLZ050-056-061-142-242-148-248-149-249-151-251-155-255-
160-260-202000-
WEST CENTRAL FLORIDA

CITY           SKY/WX    TMP DP  RH WIND       PRES   REMARKS
CRYSTAL RIVER  FAIR      75  54  46 E8        30.09F
INVERNESS      FAIR      75  57  53 E8G16     30.10F
BROOKSVILLE    SUNNY     76  54  46 E15       30.08F
CLEARWATER AIR FAIR      73  52  46 E7        30.06F
ST PETE CLEARW SUNNY     76  57  51 E9        30.06F
TAMPA INTL     MOSUNNY   78  54  43 E8        30.07F
TAMPA EXEC     SUNNY     79  55  44 E13       30.07F
PLANT CITY     SUNNY     79  54  41 E7        30.09F
MACDILL AFB    SUNNY     78  58  50 E10       30.06F
PETER O KNIGHT   N/A     77  55  47 E9        30.06F
ST PETERSBURG  SUNNY     74  60  61 E12       30.05F
SARASOTA       SUNNY     78  55  44 E12       30.03F
VENICE         FAIR      81  61  50 E13       30.03F

STATION/POSITION SKY/WX   TEMP    WIND        PRES    WAVE   SWELL
                          AIR SEA DIR/SP/G            HT/PER HT/PER
                          (F)     (DEG/KT/KT) (MB)    (FT/S) (FT/S)
27.3N   84.2W                 77                N/A     5/ 6
CLEARWATER BEACH           73 69  100/  5/  9 1018.2F
MIDDLE TAMPA BAY           72      70/  7/ 10 1018.0F
VENICE                     77 72   80/  8/ 11 1017.0F

$$
FLZ066-069-070-075>078-162-262-165-265-202000-
SOUTHWEST FLORIDA AND KEYS

CITY           SKY/WX    TMP DP  RH WIND       PRES   REMARKS
PUNTA GORDA    MOSUNNY   81  61  50 E13G23    30.04F
FT MYERS       MOSUNNY   79  63  57 E10       30.02F
SOUTHWEST INTL MOSUNNY   78  64  61 E15       30.02F
NAPLES         CLOUDY    81  64  56 E16       30.01F
MARCO ISLAND   CLOUDY    80  65  59 E13       30.02F
IMMOKALEE      PTSUNNY   81  64  57 E10       30.04F
MARATHON       LGT RAIN  76  70  82 NE13      29.98F
KEY WEST NAS   MOSUNNY   78  71  79 NE13G21   29.99F
KEY WEST INTL  SUNNY     79  69  71 NE9G20    29.99F

STATION/POSITION SKY/WX   TEMP    WIND        PRES    WAVE   SWELL
                          AIR SEA DIR/SP/G            HT/PER HT/PER
                          (F)     (DEG/KT/KT) (MB)    (FT/S) (FT/S)
NAPLES                        74   70/  8/ 16 1016.2F
DRY TORTUGAS               75      90/ 18/ 21 1015.6F
SAND KEY                   76                 1016.2F
MOLASSES REEF              76 78   70/ 21/ 23 1015.6F

$$
FLZ067-068-071>074-168-172>174-202000-
SOUTHEAST FLORIDA

CITY           SKY/WX    TMP DP  RH WIND       PRES   REMARKS
W PALM BEACH   MOSUNNY   78  63  59 NE12      30.05F
BOCA RATON     PTSUNNY   79  64  61 NE14      30.04S
FT LAUDER-EXEC MOSUNNY   77  67  71 NE15G22   30.02F
FT LAUDERDALE  PTSUNNY   77  67  71 NE14      30.01F
POMPANO BEACH  MOSUNNY   79  65  62 E15       30.03F
PEMBROKE PINES CLOUDY    79  66  64 E12       30.03F
OPA LOCKA      CLOUDY    78  68  71 NE15      30.03F
MIAMI          PTSUNNY   79  67  66 NE14G22   30.02F
WEST KENDALL   PTSUNNY   77  66  68 E15       30.01F
HOMESTEAD      PTSUNNY   78  70  77 NE17      30.00F

STATION/POSITION SKY/WX   TEMP    WIND        PRES    WAVE   SWELL
                          AIR SEA DIR/SP/G            HT/PER HT/PER
                          (F)     (DEG/KT/KT) (MB)    (FT/S) (FT/S)
PORT EVERGLADES            76      50/ 14/ 18 1016.7F
VIRGINIA KEY               77 78   40/ 12/ 18 1016.1F
LAKE WORTH                 75 78   50/ 14/ 18 1018.3F
FOWEY ROCKS                76 78   40/ 21/ 22 1016.7F
SETTLEMENT POINT           74      60/ 18/ 20 1017.2F

$$





USA.gov is the U.S. government's official web portal to all federal, state and local government web resources and services.